Year,Month,Day,Hour,Minute,Value (Times are PST for temperature in C)
2009,09,30,00,00,9.90
2009,09,30,00,01,9.90
2009,09,30,00,02,9.90
2009,09,30,00,03,9.90
2009,09,30,00,04,9.90
2009,09,30,00,05,9.90
2009,09,30,00,06,9.90
2009,09,30,00,07,9.90
2009,09,30,00,08,9.80
2009,09,30,00,09,9.80
2009,09,30,00,10,9.80
2009,09,30,00,11,9.80
2009,09,30,00,12,9.80
2009,09,30,00,13,9.80
2009,09,30,00,14,9.70
2009,09,30,00,15,9.70
2009,09,30,00,16,9.70
2009,09,30,00,17,9.70
2009,09,30,00,18,9.70
2009,09,30,00,19,9.70
2009,09,30,00,20,9.70
2009,09,30,00,21,9.70
2009,09,30,00,22,9.70
2009,09,30,00,23,9.60
2009,09,30,00,24,9.60
2009,09,30,00,25,9.60
2009,09,30,00,26,9.60
2009,09,30,00,27,9.60
2009,09,30,00,28,9.60
2009,09,30,00,29,9.60
2009,09,30,00,30,9.50
2009,09,30,00,31,9.50
2009,09,30,00,32,9.50
2009,09,30,00,33,9.50
2009,09,30,00,34,9.50
2009,09,30,00,35,9.40
2009,09,30,00,36,9.40
2009,09,30,00,37,9.40
2009,09,30,00,38,9.40
2009,09,30,00,39,9.40
2009,09,30,00,40,9.30
2009,09,30,00,41,9.30
2009,09,30,00,42,9.30
2009,09,30,00,43,9.30
2009,09,30,00,44,9.30
2009,09,30,00,45,9.30
2009,09,30,00,46,9.30
2009,09,30,00,47,9.30
2009,09,30,00,48,9.30
2009,09,30,00,49,9.30
2009,09,30,00,50,9.30
2009,09,30,00,51,9.30
2009,09,30,00,52,9.30
2009,09,30,00,53,9.30
2009,09,30,00,54,9.30
2009,09,30,00,55,9.20
2009,09,30,00,56,9.20
2009,09,30,00,57,9.20
2009,09,30,00,58,9.20
2009,09,30,00,59,9.20
2009,09,30,01,00,9.20
2009,09,30,01,01,9.20
2009,09,30,01,02,9.20
2009,09,30,01,03,9.20
2009,09,30,01,04,9.20
2009,09,30,01,05,9.20
2009,09,30,01,06,9.20
2009,09,30,01,07,9.20
2009,09,30,01,08,9.20
2009,09,30,01,09,9.20
2009,09,30,01,10,9.20
2009,09,30,01,11,9.20
2009,09,30,01,12,9.20
2009,09,30,01,13,9.20
2009,09,30,01,14,9.20
2009,09,30,01,15,9.20
2009,09,30,01,16,9.30
2009,09,30,01,17,9.30
2009,09,30,01,18,9.30
2009,09,30,01,19,9.30
2009,09,30,01,20,9.30
2009,09,30,01,21,9.30
2009,09,30,01,22,9.30
2009,09,30,01,23,9.40
2009,09,30,01,24,9.40
2009,09,30,01,25,9.40
2009,09,30,01,26,9.40
2009,09,30,01,27,9.40
2009,09,30,01,28,9.40
2009,09,30,01,29,9.40
2009,09,30,01,30,9.40
2009,09,30,01,31,9.40
2009,09,30,01,32,9.40
2009,09,30,01,33,9.40
2009,09,30,01,34,9.40
2009,09,30,01,35,9.50
2009,09,30,01,36,9.50
2009,09,30,01,37,9.50
2009,09,30,01,38,9.50
2009,09,30,01,39,9.50
2009,09,30,01,40,9.60
2009,09,30,01,41,9.60
2009,09,30,01,42,9.60
2009,09,30,01,43,9.60
2009,09,30,01,44,9.60
2009,09,30,01,45,9.60
2009,09,30,01,46,9.60
2009,09,30,01,47,9.60
2009,09,30,01,48,9.60
2009,09,30,01,49,9.60
2009,09,30,01,50,9.50
2009,09,30,01,51,9.50
2009,09,30,01,52,9.50
2009,09,30,01,53,9.50
2009,09,30,01,54,9.50
2009,09,30,01,55,9.50
2009,09,30,01,56,9.50
2009,09,30,01,57,9.40
2009,09,30,01,58,9.40
2009,09,30,01,59,9.40
2009,09,30,02,00,9.40
2009,09,30,02,01,9.40
2009,09,30,02,02,9.40
2009,09,30,02,03,9.40
2009,09,30,02,04,9.40
2009,09,30,02,05,9.40
2009,09,30,02,06,9.30
2009,09,30,02,07,9.30
2009,09,30,02,08,9.30
2009,09,30,02,09,9.30
2009,09,30,02,10,9.30
2009,09,30,02,11,9.30
2009,09,30,02,12,9.30
2009,09,30,02,13,9.30
2009,09,30,02,14,9.30
2009,09,30,02,15,9.30
2009,09,30,02,16,9.30
2009,09,30,02,17,9.30
2009,09,30,02,18,9.20
2009,09,30,02,19,9.20
2009,09,30,02,20,9.20
2009,09,30,02,21,9.20
2009,09,30,02,22,9.20
2009,09,30,02,23,9.20
2009,09,30,02,24,9.20
2009,09,30,02,25,9.10
2009,09,30,02,26,9.10
2009,09,30,02,27,9.00
2009,09,30,02,28,9.00
2009,09,30,02,29,9.00
2009,09,30,02,30,8.90
2009,09,30,02,31,8.90
2009,09,30,02,32,8.90
2009,09,30,02,33,8.90
2009,09,30,02,34,8.80
2009,09,30,02,35,8.80
2009,09,30,02,36,8.80
2009,09,30,02,37,8.70
2009,09,30,02,38,8.70
2009,09,30,02,39,8.70
2009,09,30,02,40,8.70
2009,09,30,02,41,8.70
2009,09,30,02,42,8.70
2009,09,30,02,43,8.70
2009,09,30,02,44,8.70
2009,09,30,02,45,8.70
2009,09,30,02,46,8.70
2009,09,30,02,47,8.70
2009,09,30,02,48,8.70
2009,09,30,02,49,8.60
2009,09,30,02,50,8.60
2009,09,30,02,51,8.60
2009,09,30,02,52,8.70
2009,09,30,02,53,8.70
2009,09,30,02,54,8.60
2009,09,30,02,55,8.60
2009,09,30,02,56,8.50
2009,09,30,02,57,8.50
2009,09,30,02,58,8.50
2009,09,30,02,59,8.50
2009,09,30,03,00,8.40
2009,09,30,03,01,8.40
2009,09,30,03,02,8.40
2009,09,30,03,03,8.40
2009,09,30,03,04,8.30
2009,09,30,03,05,8.30
2009,09,30,03,06,8.30
2009,09,30,03,07,8.30
2009,09,30,03,08,8.20
2009,09,30,03,09,8.20
2009,09,30,03,10,8.20
2009,09,30,03,11,8.20
2009,09,30,03,12,8.20
2009,09,30,03,13,8.20
2009,09,30,03,14,8.10
2009,09,30,03,15,8.10
2009,09,30,03,16,8.10
2009,09,30,03,17,8.10
2009,09,30,03,18,8.20
2009,09,30,03,19,8.20
2009,09,30,03,20,8.20
2009,09,30,03,21,8.20
2009,09,30,03,22,8.20
2009,09,30,03,23,8.30
2009,09,30,03,24,8.30
2009,09,30,03,25,8.30
2009,09,30,03,26,8.30
2009,09,30,03,27,8.30
2009,09,30,03,28,8.30
2009,09,30,03,29,8.40
2009,09,30,03,30,8.40
2009,09,30,03,31,8.40
2009,09,30,03,32,8.40
2009,09,30,03,33,8.40
2009,09,30,03,34,8.40
2009,09,30,03,35,8.40
2009,09,30,03,36,8.40
2009,09,30,03,37,8.40
2009,09,30,03,38,8.50
2009,09,30,03,39,8.50
2009,09,30,03,40,8.50
2009,09,30,03,41,8.50
2009,09,30,03,42,8.50
2009,09,30,03,43,8.50
2009,09,30,03,44,8.50
2009,09,30,03,45,8.60
2009,09,30,03,46,8.60
2009,09,30,03,47,8.60
2009,09,30,03,48,8.60
2009,09,30,03,49,8.70
2009,09,30,03,50,8.70
2009,09,30,03,51,8.70
2009,09,30,03,52,8.70
2009,09,30,03,53,8.70
2009,09,30,03,54,8.70
2009,09,30,03,55,8.70
2009,09,30,03,56,8.70
2009,09,30,03,57,8.70
2009,09,30,03,58,8.70
2009,09,30,03,59,8.70
2009,09,30,04,00,8.70
2009,09,30,04,01,8.70
2009,09,30,04,02,8.80
2009,09,30,04,03,8.80
2009,09,30,04,04,8.80
2009,09,30,04,05,8.70
2009,09,30,04,06,8.70
2009,09,30,04,07,8.70
2009,09,30,04,08,8.70
2009,09,30,04,09,8.70
2009,09,30,04,10,8.60
2009,09,30,04,11,8.50
2009,09,30,04,12,8.40
2009,09,30,04,13,8.40
2009,09,30,04,14,8.30
2009,09,30,04,15,8.30
2009,09,30,04,16,8.20
2009,09,30,04,17,8.20
2009,09,30,04,18,8.20
2009,09,30,04,19,8.10
2009,09,30,04,20,8.10
2009,09,30,04,21,8.00
2009,09,30,04,22,8.00
2009,09,30,04,23,7.90
2009,09,30,04,24,7.90
2009,09,30,04,25,7.90
2009,09,30,04,26,7.80
2009,09,30,04,27,7.80
2009,09,30,04,28,7.80
2009,09,30,04,29,7.80
2009,09,30,04,30,7.80
2009,09,30,04,31,7.70
2009,09,30,04,32,7.70
2009,09,30,04,33,7.70
2009,09,30,04,34,7.60
2009,09,30,04,35,7.60
2009,09,30,04,36,7.60
2009,09,30,04,37,7.60
2009,09,30,04,38,7.50
2009,09,30,04,39,7.50
2009,09,30,04,40,7.50
2009,09,30,04,41,7.40
2009,09,30,04,42,7.40
2009,09,30,04,43,7.40
2009,09,30,04,44,7.40
2009,09,30,04,45,7.30
2009,09,30,04,46,7.30
2009,09,30,04,47,7.30
2009,09,30,04,48,7.30
2009,09,30,04,49,7.20
2009,09,30,04,50,7.20
2009,09,30,04,51,7.20
2009,09,30,04,52,7.20
2009,09,30,04,53,7.10
2009,09,30,04,54,7.10
2009,09,30,04,55,7.10
2009,09,30,04,56,7.10
2009,09,30,04,57,7.00
2009,09,30,04,58,7.00
2009,09,30,04,59,7.00
2009,09,30,05,00,7.00
2009,09,30,05,01,7.00
2009,09,30,05,02,6.90
2009,09,30,05,03,6.90
2009,09,30,05,04,6.90
2009,09,30,05,05,6.90
2009,09,30,05,06,6.90
2009,09,30,05,07,6.90
2009,09,30,05,08,6.80
2009,09,30,05,09,6.80
2009,09,30,05,10,6.80
2009,09,30,05,11,6.80
2009,09,30,05,12,6.80
2009,09,30,05,13,6.80
2009,09,30,05,14,6.80
2009,09,30,05,15,6.80
2009,09,30,05,16,6.80
2009,09,30,05,17,6.80
2009,09,30,05,18,6.80
2009,09,30,05,19,6.80
2009,09,30,05,20,6.80
2009,09,30,05,21,6.80
2009,09,30,05,22,6.80
2009,09,30,05,23,6.80
2009,09,30,05,24,6.80
2009,09,30,05,25,6.80
2009,09,30,05,26,6.80
2009,09,30,05,27,6.80
2009,09,30,05,28,6.80
2009,09,30,05,29,6.80
2009,09,30,05,30,6.80
2009,09,30,05,31,6.80
2009,09,30,05,32,6.80
2009,09,30,05,33,6.80
2009,09,30,05,34,6.80
2009,09,30,05,35,6.80
2009,09,30,05,36,6.80
2009,09,30,05,37,6.70
2009,09,30,05,38,6.70
2009,09,30,05,39,6.70
2009,09,30,05,40,6.70
2009,09,30,05,41,6.70
2009,09,30,05,42,6.70
2009,09,30,05,43,6.70
2009,09,30,05,44,6.70
2009,09,30,05,45,6.70
2009,09,30,05,46,6.70
2009,09,30,05,47,6.70
2009,09,30,05,48,6.70
2009,09,30,05,49,6.70
2009,09,30,05,50,6.70
2009,09,30,05,51,6.70
2009,09,30,05,52,6.70
2009,09,30,05,53,6.70
2009,09,30,05,54,6.80
2009,09,30,05,55,6.80
2009,09,30,05,56,6.80
2009,09,30,05,57,6.80
2009,09,30,05,58,6.80
2009,09,30,05,59,6.80
2009,09,30,06,00,6.80
2009,09,30,06,01,6.80
2009,09,30,06,02,6.80
2009,09,30,06,03,6.80
2009,09,30,06,04,6.80
2009,09,30,06,05,6.80
2009,09,30,06,06,6.80
2009,09,30,06,07,6.80
2009,09,30,06,08,6.80
2009,09,30,06,09,6.80
2009,09,30,06,10,6.80
2009,09,30,06,11,6.90
2009,09,30,06,12,6.90
2009,09,30,06,13,6.90
2009,09,30,06,14,6.90
2009,09,30,06,15,6.90
2009,09,30,06,16,7.00
2009,09,30,06,17,7.00
2009,09,30,06,18,7.00
2009,09,30,06,19,7.00
2009,09,30,06,20,7.00
2009,09,30,06,21,7.10
2009,09,30,06,22,7.10
2009,09,30,06,23,7.10
2009,09,30,06,24,7.10
2009,09,30,06,25,7.10
2009,09,30,06,26,7.10
2009,09,30,06,27,7.20
2009,09,30,06,28,7.20
2009,09,30,06,29,7.20
2009,09,30,06,30,7.20
2009,09,30,06,31,7.20
2009,09,30,06,32,7.20
2009,09,30,06,33,7.30
2009,09,30,06,34,7.30
2009,09,30,06,35,7.30
2009,09,30,06,36,7.30
2009,09,30,06,37,7.30
2009,09,30,06,38,7.30
2009,09,30,06,39,7.30
2009,09,30,06,40,7.30
2009,09,30,06,41,7.30
2009,09,30,06,42,7.30
2009,09,30,06,43,7.30
2009,09,30,06,44,7.30
2009,09,30,06,45,7.40
2009,09,30,06,46,7.40
2009,09,30,06,47,7.40
2009,09,30,06,48,7.40
2009,09,30,06,49,7.40
2009,09,30,06,50,7.40
2009,09,30,06,51,7.40
2009,09,30,06,52,7.40
2009,09,30,06,53,7.40
2009,09,30,06,54,7.40
2009,09,30,06,55,7.40
2009,09,30,06,56,7.50
2009,09,30,06,57,7.50
2009,09,30,06,58,7.50
2009,09,30,06,59,7.50
2009,09,30,07,00,7.50
2009,09,30,07,01,7.50
2009,09,30,07,02,7.50
2009,09,30,07,03,7.50
2009,09,30,07,04,7.50
2009,09,30,07,05,7.50
2009,09,30,07,06,7.50
2009,09,30,07,07,7.60
2009,09,30,07,08,7.60
2009,09,30,07,09,7.60
2009,09,30,07,10,7.60
2009,09,30,07,11,7.60
2009,09,30,07,12,7.60
2009,09,30,07,13,7.60
2009,09,30,07,14,7.60
2009,09,30,07,15,7.60
2009,09,30,07,16,7.60
2009,09,30,07,17,7.50
2009,09,30,07,18,7.50
2009,09,30,07,19,7.50
2009,09,30,07,20,7.50
2009,09,30,07,21,7.50
2009,09,30,07,22,7.50
2009,09,30,07,23,7.50
2009,09,30,07,24,7.50
2009,09,30,07,25,7.50
2009,09,30,07,26,7.50
2009,09,30,07,27,7.50
2009,09,30,07,28,7.50
2009,09,30,07,29,7.40
2009,09,30,07,30,7.40
2009,09,30,07,31,7.40
2009,09,30,07,32,7.40
2009,09,30,07,33,7.40
2009,09,30,07,34,7.40
2009,09,30,07,35,7.40
2009,09,30,07,36,7.40
2009,09,30,07,37,7.40
2009,09,30,07,38,7.40
2009,09,30,07,39,7.40
2009,09,30,07,40,7.40
2009,09,30,07,41,7.40
2009,09,30,07,42,7.40
2009,09,30,07,43,7.40
2009,09,30,07,44,7.40
2009,09,30,07,45,7.40
2009,09,30,07,46,7.40
2009,09,30,07,47,7.40
2009,09,30,07,48,7.40
2009,09,30,07,49,7.40
2009,09,30,07,50,7.40
2009,09,30,07,51,7.40
2009,09,30,07,52,7.40
2009,09,30,07,53,7.40
2009,09,30,07,54,7.40
2009,09,30,07,55,7.40
2009,09,30,07,56,7.40
2009,09,30,07,57,7.40
2009,09,30,07,58,7.40
2009,09,30,07,59,7.40
2009,09,30,08,00,7.40
2009,09,30,08,01,7.40
2009,09,30,08,02,7.40
2009,09,30,08,03,7.40
2009,09,30,08,04,7.30
2009,09,30,08,05,7.30
2009,09,30,08,06,7.30
2009,09,30,08,07,7.30
2009,09,30,08,08,7.30
2009,09,30,08,09,7.30
2009,09,30,08,10,7.30
2009,09,30,08,11,7.40
2009,09,30,08,12,7.40
2009,09,30,08,13,7.40
2009,09,30,08,14,7.40
2009,09,30,08,15,7.50
2009,09,30,08,16,7.50
2009,09,30,08,17,7.50
2009,09,30,08,18,7.60
2009,09,30,08,19,7.60
2009,09,30,08,20,7.60
2009,09,30,08,21,7.70
2009,09,30,08,22,7.70
2009,09,30,08,23,7.70
2009,09,30,08,24,7.70
2009,09,30,08,25,7.80
2009,09,30,08,26,7.80
2009,09,30,08,27,7.80
2009,09,30,08,28,7.80
2009,09,30,08,29,7.80
2009,09,30,08,30,7.80
2009,09,30,08,31,7.90
2009,09,30,08,32,7.90
2009,09,30,08,33,7.90
2009,09,30,08,34,7.90
2009,09,30,08,35,8.00
2009,09,30,08,36,8.00
2009,09,30,08,37,8.00
2009,09,30,08,38,8.00
2009,09,30,08,39,8.10
2009,09,30,08,40,8.10
2009,09,30,08,41,8.10
2009,09,30,08,42,8.20
2009,09,30,08,43,8.20
2009,09,30,08,44,8.20
2009,09,30,08,45,8.20
2009,09,30,08,46,8.20
2009,09,30,08,47,8.20
2009,09,30,08,48,8.20
2009,09,30,08,49,8.30
2009,09,30,08,50,8.30
2009,09,30,08,51,8.40
2009,09,30,08,52,8.40
2009,09,30,08,53,8.50
2009,09,30,08,54,8.50
2009,09,30,08,55,8.60
2009,09,30,08,56,8.60
2009,09,30,08,57,8.70
2009,09,30,08,58,8.70
2009,09,30,08,59,8.70
2009,09,30,09,00,8.80
2009,09,30,09,01,8.90
2009,09,30,09,02,8.90
2009,09,30,09,03,8.90
2009,09,30,09,04,9.00
2009,09,30,09,05,9.00
2009,09,30,09,06,9.10
2009,09,30,09,07,9.20
2009,09,30,09,08,9.20
2009,09,30,09,09,9.30
2009,09,30,09,10,9.40
2009,09,30,09,11,9.40
2009,09,30,09,12,9.50
2009,09,30,09,13,9.60
2009,09,30,09,14,9.70
2009,09,30,09,15,9.70
2009,09,30,09,16,9.70
2009,09,30,09,17,9.80
2009,09,30,09,18,9.90
2009,09,30,09,19,10.00
2009,09,30,09,20,10.10
2009,09,30,09,21,10.20
2009,09,30,09,22,10.30
2009,09,30,09,23,10.40
2009,09,30,09,24,10.50
2009,09,30,09,25,10.60
2009,09,30,09,26,10.70
2009,09,30,09,27,10.80
2009,09,30,09,28,10.90
2009,09,30,09,29,11.00
2009,09,30,09,30,11.10
2009,09,30,09,31,11.20
2009,09,30,09,32,11.30
2009,09,30,09,33,11.40
2009,09,30,09,34,11.40
2009,09,30,09,35,11.40
2009,09,30,09,36,11.40
2009,09,30,09,37,11.40
2009,09,30,09,38,11.50
2009,09,30,09,39,11.60
2009,09,30,09,40,11.60
2009,09,30,09,41,11.60
2009,09,30,09,42,11.60
2009,09,30,09,43,11.70
2009,09,30,09,44,11.70
2009,09,30,09,45,11.80
2009,09,30,09,46,11.70
2009,09,30,09,47,11.70
2009,09,30,09,48,11.70
2009,09,30,09,49,11.80
2009,09,30,09,50,11.90
2009,09,30,09,51,12.00
2009,09,30,09,52,12.00
2009,09,30,09,53,12.10
2009,09,30,09,54,12.10
2009,09,30,09,55,12.20
2009,09,30,09,56,12.20
2009,09,30,09,57,12.30
2009,09,30,09,58,12.40
2009,09,30,09,59,12.50
2009,09,30,10,00,12.70
2009,09,30,10,01,12.80
2009,09,30,10,02,12.80
2009,09,30,10,03,12.80
2009,09,30,10,04,12.60
2009,09,30,10,05,12.60
2009,09,30,10,06,12.50
2009,09,30,10,07,12.40
2009,09,30,10,08,12.30
2009,09,30,10,09,12.40
2009,09,30,10,10,12.50
2009,09,30,10,11,12.50
2009,09,30,10,12,12.60
2009,09,30,10,13,12.70
2009,09,30,10,14,12.80
2009,09,30,10,15,12.90
2009,09,30,10,16,13.00
2009,09,30,10,17,13.00
2009,09,30,10,18,13.10
2009,09,30,10,19,13.10
2009,09,30,10,20,13.00
2009,09,30,10,21,13.00
2009,09,30,10,22,12.90
2009,09,30,10,23,12.80
2009,09,30,10,24,12.70
2009,09,30,10,25,12.70
2009,09,30,10,26,12.60
2009,09,30,10,27,12.60
2009,09,30,10,28,12.60
2009,09,30,10,29,12.60
2009,09,30,10,30,12.70
2009,09,30,10,31,12.70
2009,09,30,10,32,12.60
2009,09,30,10,33,12.60
2009,09,30,10,34,12.50
2009,09,30,10,35,12.50
2009,09,30,10,36,12.50
2009,09,30,10,37,12.50
2009,09,30,10,38,12.40
2009,09,30,10,39,12.30
2009,09,30,10,40,12.30
2009,09,30,10,41,12.30
2009,09,30,10,42,12.30
2009,09,30,10,43,12.40
2009,09,30,10,44,12.40
2009,09,30,10,45,12.50
2009,09,30,10,46,12.50
2009,09,30,10,47,12.50
2009,09,30,10,48,12.50
2009,09,30,10,49,12.50
2009,09,30,10,50,12.40
2009,09,30,10,51,12.30
2009,09,30,10,52,12.30
2009,09,30,10,53,12.10
2009,09,30,10,54,12.00
2009,09,30,10,55,12.00
2009,09,30,10,56,11.90
2009,09,30,10,57,11.80
2009,09,30,10,58,11.70
2009,09,30,10,59,11.60
2009,09,30,11,00,11.60
2009,09,30,11,01,11.60
2009,09,30,11,02,11.60
2009,09,30,11,03,11.60
2009,09,30,11,04,11.60
2009,09,30,11,05,11.60
2009,09,30,11,06,11.40
2009,09,30,11,07,11.40
2009,09,30,11,08,11.30
2009,09,30,11,09,11.20
2009,09,30,11,10,11.30
2009,09,30,11,11,11.30
2009,09,30,11,12,11.30
2009,09,30,11,13,11.30
2009,09,30,11,14,11.40
2009,09,30,11,15,11.40
2009,09,30,11,16,11.40
2009,09,30,11,17,11.50
2009,09,30,11,18,11.60
2009,09,30,11,19,11.60
2009,09,30,11,20,11.70
2009,09,30,11,21,11.70
2009,09,30,11,22,11.70
2009,09,30,11,23,11.70
2009,09,30,11,24,11.70
2009,09,30,11,25,11.80
2009,09,30,11,26,11.80
2009,09,30,11,27,11.70
2009,09,30,11,28,11.70
2009,09,30,11,29,11.70
2009,09,30,11,30,11.70
2009,09,30,11,31,11.70
2009,09,30,11,32,11.70
2009,09,30,11,33,11.60
2009,09,30,11,34,11.60
2009,09,30,11,35,11.60
2009,09,30,11,36,11.60
2009,09,30,11,37,11.60
2009,09,30,11,38,11.40
2009,09,30,11,39,11.40
2009,09,30,11,40,11.40
2009,09,30,11,41,11.40
2009,09,30,11,42,11.40
2009,09,30,11,43,11.40
2009,09,30,11,44,11.40
2009,09,30,11,45,11.40
2009,09,30,11,46,11.40
2009,09,30,11,47,11.40
2009,09,30,11,48,11.40
2009,09,30,11,49,11.40
2009,09,30,11,50,11.40
2009,09,30,11,51,11.50
2009,09,30,11,52,11.60
2009,09,30,11,53,11.70
2009,09,30,11,54,11.80
2009,09,30,11,55,11.80
2009,09,30,11,56,11.90
2009,09,30,11,57,11.90
2009,09,30,11,58,12.00
2009,09,30,11,59,12.00
2009,09,30,12,00,12.10
2009,09,30,12,01,12.10
2009,09,30,12,02,12.10
2009,09,30,12,03,12.20
2009,09,30,12,04,12.20
2009,09,30,12,05,12.30
2009,09,30,12,06,12.30
2009,09,30,12,07,12.30
2009,09,30,12,08,12.30
2009,09,30,12,09,12.30
2009,09,30,12,10,12.30
2009,09,30,12,11,12.40
2009,09,30,12,12,12.40
2009,09,30,12,13,12.40
2009,09,30,12,14,12.40
2009,09,30,12,15,12.30
2009,09,30,12,16,12.30
2009,09,30,12,17,12.30
2009,09,30,12,18,12.10
2009,09,30,12,19,12.00
2009,09,30,12,20,11.90
2009,09,30,12,21,12.00
2009,09,30,12,22,12.00
2009,09,30,12,23,12.10
2009,09,30,12,24,12.00
2009,09,30,12,25,12.10
2009,09,30,12,26,12.10
2009,09,30,12,27,12.20
2009,09,30,12,28,12.30
2009,09,30,12,29,12.40
2009,09,30,12,30,12.50
2009,09,30,12,31,12.50
2009,09,30,12,32,12.60
2009,09,30,12,33,12.80
2009,09,30,12,34,12.80
2009,09,30,12,35,12.90
2009,09,30,12,36,12.90
2009,09,30,12,37,13.00
2009,09,30,12,38,13.00
2009,09,30,12,39,13.10
2009,09,30,12,40,13.20
2009,09,30,12,41,13.30
2009,09,30,12,42,13.30
2009,09,30,12,43,13.30
2009,09,30,12,44,13.40
2009,09,30,12,45,13.50
2009,09,30,12,46,13.60
2009,09,30,12,47,13.60
2009,09,30,12,48,13.70
2009,09,30,12,49,13.70
2009,09,30,12,50,13.80
2009,09,30,12,51,13.90
2009,09,30,12,52,13.90
2009,09,30,12,53,14.00
2009,09,30,12,54,14.10
2009,09,30,12,55,14.20
2009,09,30,12,56,14.20
2009,09,30,12,57,14.10
2009,09,30,12,58,14.00
2009,09,30,12,59,14.00
2009,09,30,13,00,14.00
2009,09,30,13,01,14.00
2009,09,30,13,02,14.10
2009,09,30,13,03,14.20
2009,09,30,13,04,14.20
2009,09,30,13,05,14.20
2009,09,30,13,06,14.30
2009,09,30,13,07,14.30
2009,09,30,13,08,14.30
2009,09,30,13,09,14.30
2009,09,30,13,10,14.40
2009,09,30,13,11,14.40
2009,09,30,13,12,14.50
2009,09,30,13,13,14.50
2009,09,30,13,14,14.60
2009,09,30,13,15,14.60
2009,09,30,13,16,14.60
2009,09,30,13,17,14.70
2009,09,30,13,18,14.70
2009,09,30,13,19,14.80
2009,09,30,13,20,14.90
2009,09,30,13,21,14.90
2009,09,30,13,22,15.00
2009,09,30,13,23,15.00
2009,09,30,13,24,15.00
2009,09,30,13,25,15.10
2009,09,30,13,26,15.00
2009,09,30,13,27,15.00
2009,09,30,13,28,15.00
2009,09,30,13,29,15.00
2009,09,30,13,30,15.00
2009,09,30,13,31,15.00
2009,09,30,13,32,15.00
2009,09,30,13,33,14.90
2009,09,30,13,34,15.00
2009,09,30,13,35,15.00
2009,09,30,13,36,15.00
2009,09,30,13,37,15.00
2009,09,30,13,38,15.00
2009,09,30,13,39,15.00
2009,09,30,13,40,15.00
2009,09,30,13,41,14.90
2009,09,30,13,42,14.90
2009,09,30,13,43,14.90
2009,09,30,13,44,14.90
2009,09,30,13,45,14.90
2009,09,30,13,46,14.80
2009,09,30,13,47,14.80
2009,09,30,13,48,14.80
2009,09,30,13,49,14.80
2009,09,30,13,50,14.80
2009,09,30,13,51,14.80
2009,09,30,13,52,14.80
2009,09,30,13,53,14.80
2009,09,30,13,54,14.80
2009,09,30,13,55,14.80
2009,09,30,13,56,14.90
2009,09,30,13,57,14.90
2009,09,30,13,58,15.00
2009,09,30,13,59,15.10
2009,09,30,14,00,15.30
2009,09,30,14,01,15.30
2009,09,30,14,02,15.30
2009,09,30,14,03,15.30
2009,09,30,14,04,15.40
2009,09,30,14,05,15.50
2009,09,30,14,06,15.50
2009,09,30,14,07,15.60
2009,09,30,14,08,15.60
2009,09,30,14,09,15.50
2009,09,30,14,10,15.50
2009,09,30,14,11,15.40
2009,09,30,14,12,15.40
2009,09,30,14,13,15.40
2009,09,30,14,14,15.50
2009,09,30,14,15,15.50
2009,09,30,14,16,15.50
2009,09,30,14,17,15.50
2009,09,30,14,18,15.40
2009,09,30,14,19,15.50
2009,09,30,14,20,15.50
2009,09,30,14,21,15.60
2009,09,30,14,22,15.70
2009,09,30,14,23,15.80
2009,09,30,14,24,15.80
2009,09,30,14,25,15.70
2009,09,30,14,26,15.60
2009,09,30,14,27,15.30
2009,09,30,14,28,15.10
2009,09,30,14,29,14.90
2009,09,30,14,30,14.80
2009,09,30,14,31,14.80
2009,09,30,14,32,14.80
2009,09,30,14,33,14.80
2009,09,30,14,34,14.80
2009,09,30,14,35,14.80
2009,09,30,14,36,14.80
2009,09,30,14,37,14.70
2009,09,30,14,38,14.70
2009,09,30,14,39,14.60
2009,09,30,14,40,14.60
2009,09,30,14,41,14.50
2009,09,30,14,42,14.50
2009,09,30,14,43,14.50
2009,09,30,14,44,14.50
2009,09,30,14,45,14.40
2009,09,30,14,46,14.40
2009,09,30,14,47,14.40
2009,09,30,14,48,14.40
2009,09,30,14,49,14.50
2009,09,30,14,50,14.50
2009,09,30,14,51,14.60
2009,09,30,14,52,14.70
2009,09,30,14,53,14.70
2009,09,30,14,54,14.70
2009,09,30,14,55,14.60
2009,09,30,14,56,14.60
2009,09,30,14,57,14.60
2009,09,30,14,58,14.50
2009,09,30,14,59,14.50
2009,09,30,15,00,14.50
2009,09,30,15,01,14.50
2009,09,30,15,02,14.60
2009,09,30,15,03,14.60
2009,09,30,15,04,14.60
2009,09,30,15,05,14.70
2009,09,30,15,06,14.70
2009,09,30,15,07,14.70
2009,09,30,15,08,14.70
2009,09,30,15,09,14.80
2009,09,30,15,10,14.80
2009,09,30,15,11,14.80
2009,09,30,15,12,14.90
2009,09,30,15,13,14.90
2009,09,30,15,14,15.00
2009,09,30,15,15,14.90
2009,09,30,15,16,14.90
2009,09,30,15,17,14.80
2009,09,30,15,18,14.80
2009,09,30,15,19,14.70
2009,09,30,15,20,14.60
2009,09,30,15,21,14.50
2009,09,30,15,22,14.50
2009,09,30,15,23,14.50
2009,09,30,15,24,14.50
2009,09,30,15,25,14.50
2009,09,30,15,26,14.50
2009,09,30,15,27,14.50
2009,09,30,15,28,14.40
2009,09,30,15,29,14.40
2009,09,30,15,30,14.40
2009,09,30,15,31,14.40
2009,09,30,15,32,14.40
2009,09,30,15,33,14.40
2009,09,30,15,34,14.40
2009,09,30,15,35,14.40
2009,09,30,15,36,14.40
2009,09,30,15,37,14.40
2009,09,30,15,38,14.40
2009,09,30,15,39,14.40
2009,09,30,15,40,14.40
2009,09,30,15,41,14.40
2009,09,30,15,42,14.40
2009,09,30,15,43,14.40
2009,09,30,15,44,14.40
2009,09,30,15,45,14.50
2009,09,30,15,46,14.50
2009,09,30,15,47,14.40
2009,09,30,15,48,14.40
2009,09,30,15,49,14.40
2009,09,30,15,50,14.40
2009,09,30,15,51,14.50
2009,09,30,15,52,14.40
2009,09,30,15,53,14.40
2009,09,30,15,54,14.40
2009,09,30,15,55,14.30
2009,09,30,15,56,14.30
2009,09,30,15,57,14.40
2009,09,30,15,58,14.40
2009,09,30,15,59,14.50
2009,09,30,16,00,14.50
2009,09,30,16,01,14.50
2009,09,30,16,02,14.60
2009,09,30,16,03,14.50
2009,09,30,16,04,14.50
2009,09,30,16,05,14.50
2009,09,30,16,06,14.40
2009,09,30,16,07,14.40
2009,09,30,16,08,14.40
2009,09,30,16,09,14.30
2009,09,30,16,10,14.20
2009,09,30,16,11,14.20
2009,09,30,16,12,14.20
2009,09,30,16,13,14.20
2009,09,30,16,14,14.20
2009,09,30,16,15,14.10
2009,09,30,16,16,14.10
2009,09,30,16,17,14.10
2009,09,30,16,18,14.10
2009,09,30,16,19,14.10
2009,09,30,16,20,14.10
2009,09,30,16,21,14.10
2009,09,30,16,22,14.20
2009,09,30,16,23,14.20
2009,09,30,16,24,14.20
2009,09,30,16,25,14.20
2009,09,30,16,26,14.10
2009,09,30,16,27,14.10
2009,09,30,16,28,14.10
2009,09,30,16,29,14.10
2009,09,30,16,30,14.10
2009,09,30,16,31,14.10
2009,09,30,16,32,14.10
2009,09,30,16,33,14.10
2009,09,30,16,34,14.10
2009,09,30,16,35,14.20
2009,09,30,16,36,14.10
2009,09,30,16,37,14.10
2009,09,30,16,38,14.00
2009,09,30,16,39,14.00
2009,09,30,16,40,14.00
2009,09,30,16,41,14.00
2009,09,30,16,42,14.00
2009,09,30,16,43,14.00
2009,09,30,16,44,14.00
2009,09,30,16,45,14.10
2009,09,30,16,46,14.00
2009,09,30,16,47,14.00
2009,09,30,16,48,14.00
2009,09,30,16,49,14.00
2009,09,30,16,50,14.00
2009,09,30,16,51,13.90
2009,09,30,16,52,14.00
2009,09,30,16,53,13.90
2009,09,30,16,54,13.90
2009,09,30,16,55,13.90
2009,09,30,16,56,13.90
2009,09,30,16,57,13.90
2009,09,30,16,58,13.80
2009,09,30,16,59,13.80
2009,09,30,17,00,13.80
2009,09,30,17,01,13.80
2009,09,30,17,02,13.80
2009,09,30,17,03,13.80
2009,09,30,17,04,13.80
2009,09,30,17,05,13.80
2009,09,30,17,06,13.80
2009,09,30,17,07,13.80
2009,09,30,17,08,13.70
2009,09,30,17,09,13.70
2009,09,30,17,10,13.70
2009,09,30,17,11,13.70
2009,09,30,17,12,13.70
2009,09,30,17,13,13.70
2009,09,30,17,14,13.70
2009,09,30,17,15,13.70
2009,09,30,17,16,13.70
2009,09,30,17,17,13.60
2009,09,30,17,18,13.60
2009,09,30,17,19,13.60
2009,09,30,17,20,13.60
2009,09,30,17,21,13.50
2009,09,30,17,22,13.50
2009,09,30,17,23,13.50
2009,09,30,17,24,13.50
2009,09,30,17,25,13.50
2009,09,30,17,26,13.50
2009,09,30,17,27,13.50
2009,09,30,17,28,13.50
2009,09,30,17,29,13.50
2009,09,30,17,30,13.50
2009,09,30,17,31,13.40
2009,09,30,17,32,13.40
2009,09,30,17,33,13.40
2009,09,30,17,34,13.40
2009,09,30,17,35,13.40
2009,09,30,17,36,13.40
2009,09,30,17,37,13.40
2009,09,30,17,38,13.40
2009,09,30,17,39,13.40
2009,09,30,17,40,13.50
2009,09,30,17,41,13.50
2009,09,30,17,42,13.50
2009,09,30,17,43,13.40